Bay City, TX

6:08 PM CDT on October 17, 2017 (GMT -0500)
Bay City

Weather History for KBYY - November, 2011

Change the Weather History Date:

Monday, November 28, 2011

  Actual Average (KLBX) Record (KLBX)
Temperature  
Mean Temperature 48 °F -  
Max Temperature 62 °F 66 °F 82 °F (2016)
Min Temperature 33 °F 50 °F 30 °F (2013)
Degree Days  
Heating Degree Days 18    
Moisture  
Dew Point 26 °F    
Average Humidity 49    
Maximum Humidity 82    
Minimum Humidity 21    
Precipitation  
Precipitation 0.00 in - - ()
Sea Level Pressure  
Sea Level Pressure 30.17 in    
Wind  
Wind Speed 6 mph (WNW)    
Max Wind Speed 14 mph    
Max Gust Speed 20 mph    
Visibility 10 miles    
Events      
Averages and records for this station are not official NWS values.
T = Trace of Precipitation, MM = Missing Value Source: NWS Daily Summary

Daily Weather History Graph

Daily Weather History Graph

Search for Another Location

Airport or City:

Trip Planner

Search our weather history database for the weather conditions in past years. The results will help you decide how hot, cold, wet, or windy it might be!

Date:

Astronomy

Nov. 28, 2011 Rise Set
Actual Time 6:57 AM CST 5:25 PM CST
Civil Twilight 6:31 AM CST 5:51 PM CST
Nautical Twilight 6:02 AM CST 6:20 PM CST
Astronomical Twilight 5:33 AM CST 6:48 PM CST
Moon 10:09 AM CST (11/28) 9:09 PM CST (11/28)
Length of Visible Light 11h 19m
Length of Day
10h 28m
Waxing Crescent, 16% of the Moon is Illuminated
Nov 28
Waxing Crescent
Dec 2
First Quarter
Dec 10
Full
Dec 17
Last Quarter
Dec 24
New

Hourly Weather History & Observations

Time (CST) Temp. Windchill Dew Point Humidity Pressure Visibility Wind Dir Wind Speed Gust Speed Precip Events Conditions
12:15 AM 38.3 °F 33.9 °F 29.3 °F 70% 30.24 in 10.0 mi WNW 5.8 mph - N/A   Unknown
12:35 AM 37.8 °F 33.3 °F 28.8 °F 70% 30.24 in 10.0 mi WNW 5.8 mph - N/A   Unknown
12:55 AM 38.5 °F 33.4 °F 28.2 °F 67% 30.23 in 10.0 mi WNW 6.9 mph - N/A   Unknown
1:15 AM 38.3 °F 33.9 °F 28.4 °F 68% 30.23 in 10.0 mi West 5.8 mph - N/A   Unknown
1:35 AM 37.9 °F 34.4 °F 28.6 °F 69% 30.22 in 10.0 mi WNW 4.6 mph - N/A   Unknown
1:55 AM 38.1 °F - 28.0 °F 67% 30.22 in 10.0 mi Calm Calm - N/A   Unknown
2:15 AM 37.6 °F 33.1 °F 28.0 °F 68% 30.22 in 10.0 mi WNW 5.8 mph - N/A   Unknown
2:35 AM 37.8 °F 33.3 °F 27.1 °F 66% 30.21 in 10.0 mi WNW 5.8 mph - N/A   Unknown
2:55 AM 37.0 °F 32.4 °F 27.5 °F 68% 30.21 in 10.0 mi WNW 5.8 mph - N/A   Unknown
3:15 AM 37.0 °F 33.3 °F 27.3 °F 68% 30.21 in 10.0 mi WNW 4.6 mph - N/A   Unknown
3:35 AM 36.9 °F 33.1 °F 27.0 °F 67% 30.21 in 10.0 mi WNW 4.6 mph - N/A   Unknown
3:55 AM 35.1 °F 32.2 °F 27.9 °F 75% 30.21 in 10.0 mi WSW 3.5 mph - N/A   Unknown
4:15 AM 34.7 °F 30.6 °F 27.7 °F 76% 30.21 in 10.0 mi WSW 4.6 mph - N/A   Unknown
4:35 AM 33.4 °F 29.1 °F 28.0 °F 81% 30.21 in 10.0 mi West 4.6 mph - N/A   Unknown
4:55 AM 33.3 °F - 28.4 °F 82% 30.20 in 10.0 mi Calm Calm - N/A   Unknown
5:15 AM 34.3 °F 31.4 °F 28.0 °F 78% 30.20 in 10.0 mi WNW 3.5 mph - N/A   Unknown
5:35 AM 35.1 °F - 27.3 °F 73% 30.21 in 10.0 mi Calm Calm - N/A   Unknown
5:55 AM 34.5 °F - 27.9 °F 77% 30.21 in 10.0 mi Calm Calm - N/A   Unknown
6:15 AM 33.8 °F 30.8 °F 28.4 °F 81% 30.21 in 10.0 mi WNW 3.5 mph - N/A   Unknown
6:35 AM 34.5 °F 30.4 °F 26.8 °F 73% 30.21 in 10.0 mi WNW 4.6 mph - N/A   Unknown
6:55 AM 34.5 °F 31.6 °F 26.6 °F 73% 30.22 in 10.0 mi WNW 3.5 mph - N/A   Unknown
7:35 AM 34.9 °F 30.8 °F 27.3 °F 74% 30.21 in 10.0 mi WNW 4.6 mph - N/A   Unknown
7:55 AM 36.9 °F 33.1 °F 27.7 °F 69% 30.21 in 10.0 mi NW 4.6 mph - N/A   Unknown
8:15 AM 38.8 °F 33.8 °F 29.1 °F 68% 30.21 in 10.0 mi NW 6.9 mph - N/A   Unknown
8:35 AM 41.4 °F 36.2 °F 28.9 °F 61% 30.21 in 10.0 mi NW 8.1 mph - N/A   Unknown
8:55 AM 44.2 °F 40.3 °F 29.1 °F 55% 30.21 in 10.0 mi NW 6.9 mph - N/A   Unknown
9:15 AM 46.4 °F 41.9 °F 28.4 °F 50% 30.21 in 10.0 mi NW 9.2 mph - N/A   Unknown
9:35 AM 49.1 °F - 27.1 °F 43% 30.21 in 10.0 mi NW 9.2 mph - N/A   Unknown
9:55 AM 50.9 °F - 24.4 °F 36% 30.20 in 10.0 mi NW 10.4 mph - N/A   Unknown
10:15 AM 52.2 °F - 22.8 °F 32% 30.20 in 10.0 mi NW 12.7 mph - N/A   Unknown
10:35 AM 53.1 °F - 22.5 °F 30% 30.20 in 10.0 mi NW 12.7 mph 16.1 mph N/A   Unknown
10:55 AM 54.1 °F - 21.0 °F 27% 30.19 in 10.0 mi NW 13.8 mph 18.4 mph N/A   Unknown
11:15 AM 55.2 °F - 19.9 °F 25% 30.19 in 10.0 mi NW 11.5 mph 18.4 mph N/A   Unknown
11:35 AM 55.8 °F - 20.1 °F 25% 30.18 in 10.0 mi WNW 10.4 mph 19.6 mph N/A   Unknown
11:55 AM 55.4 °F - 21.2 °F 26% 30.17 in 10.0 mi NW 11.5 mph 17.3 mph N/A   Unknown
12:15 PM 57.7 °F - 19.8 °F 23% 30.16 in 10.0 mi WNW 11.5 mph 17.3 mph N/A   Unknown
12:35 PM 58.6 °F - 21.2 °F 24% 30.14 in 10.0 mi NW 10.4 mph - N/A   Unknown
12:55 PM 59.0 °F - 21.2 °F 23% 30.12 in 10.0 mi NW 11.5 mph - N/A   Unknown
1:15 PM 59.9 °F - 20.8 °F 22% 30.11 in 10.0 mi WNW 4.6 mph - N/A   Unknown
1:35 PM 60.6 °F - 20.7 °F 21% 30.11 in 10.0 mi NW 12.7 mph - N/A   Unknown
1:55 PM 61.2 °F - 20.5 °F 21% 30.10 in 10.0 mi WNW 11.5 mph - N/A   Unknown
2:15 PM 61.5 °F - 21.2 °F 21% 30.09 in 10.0 mi WNW 12.7 mph 17.3 mph N/A   Unknown
2:35 PM 61.7 °F - 21.7 °F 22% 30.08 in 10.0 mi West 10.4 mph 17.3 mph N/A   Unknown
2:55 PM 61.9 °F - 22.1 °F 22% 30.08 in 10.0 mi WNW 8.1 mph 13.8 mph N/A   Unknown
3:15 PM 62.1 °F - 22.1 °F 22% 30.07 in 10.0 mi West 10.4 mph - N/A   Unknown
3:35 PM 62.2 °F - 22.1 °F 21% 30.07 in 10.0 mi WNW 10.4 mph - N/A   Unknown
3:55 PM 62.2 °F - 23.0 °F 22% 30.07 in 10.0 mi WNW 8.1 mph - N/A   Unknown
4:15 PM 62.1 °F - 23.7 °F 23% 30.06 in 10.0 mi West 6.9 mph - N/A   Unknown
4:35 PM 61.7 °F - 23.9 °F 24% 30.06 in 10.0 mi NW 4.6 mph - N/A   Unknown
4:55 PM 61.0 °F - 25.7 °F 26% 30.06 in 10.0 mi WNW 3.5 mph - N/A   Unknown
5:15 PM 59.0 °F - 28.4 °F 31% 30.06 in 10.0 mi Calm Calm - N/A   Unknown
5:35 PM 53.6 °F - 29.1 °F 39% 30.05 in 10.0 mi Calm Calm - N/A   Unknown
5:55 PM 54.9 °F - 30.9 °F 40% 30.06 in 10.0 mi Calm Calm - N/A   Unknown
6:15 PM 53.6 °F - 31.1 °F 42% 30.06 in 10.0 mi Calm Calm - N/A   Unknown
6:35 PM 50.0 °F - 32.7 °F 52% 30.05 in 10.0 mi Calm Calm - N/A   Unknown
6:55 PM 48.2 °F - 33.8 °F 58% 30.06 in 10.0 mi South 4.6 mph - N/A   Unknown
7:15 PM 47.3 °F - 33.8 °F 59% 30.06 in 10.0 mi Calm Calm - N/A   Unknown
7:35 PM 47.5 °F - 33.8 °F 59% 30.07 in 10.0 mi Calm Calm - N/A   Unknown
7:55 PM 44.6 °F - 33.8 °F 66% 30.07 in 10.0 mi Calm Calm - N/A   Unknown
8:15 PM 44.6 °F - 34.9 °F 69% 30.07 in 10.0 mi Calm Calm - N/A   Unknown
8:35 PM 42.8 °F - 35.6 °F 76% 30.07 in 10.0 mi Calm Calm - N/A   Unknown
8:55 PM 43.5 °F - 35.8 °F 74% 30.08 in 10.0 mi Calm Calm - N/A   Unknown
9:15 PM 42.6 °F - 35.6 °F 76% 30.08 in 10.0 mi Calm Calm - N/A   Unknown
9:35 PM 41.0 °F - 36.0 °F 82% 30.08 in 10.0 mi Calm Calm - N/A   Unknown
9:55 PM 40.6 °F - 36.0 °F 83% 30.08 in 10.0 mi Calm Calm - N/A   Unknown
10:15 PM 40.1 °F - 36.0 °F 85% 30.08 in 10.0 mi Calm Calm - N/A   Unknown
10:35 PM 40.1 °F - 36.1 °F 86% 30.08 in 10.0 mi Calm Calm - N/A   Unknown
10:55 PM 39.2 °F - 35.6 °F 87% 30.08 in 10.0 mi Calm Calm - N/A   Unknown
11:15 PM 39.9 °F - 35.6 °F 85% 30.07 in 10.0 mi Calm Calm - N/A   Unknown
11:35 PM 39.4 °F 37.2 °F 35.6 °F 86% 30.07 in 10.0 mi ENE 3.5 mph - N/A   Unknown
11:55 PM 39.0 °F 36.8 °F 35.6 °F 88% 30.07 in 10.0 mi NE 3.5 mph - N/A   Unknown